Location: Bondula
(6.3703°N, 10.6756°W)
Time: 11:05:41
(UTC+00:00)

Longmarch 3A Rocket - Pass Details

Date: 22 October 2019
Orbit: 246 x 22766 km, 27.3° (Epoch: 14 November)

Event Time Altitude Azimuth Distance (km) Brightness Sun altitude
Exits shadow 05:45:40 11° 324° (NW) 1,309 3.3 -11.4°
Drops below altitude 10° 05:46:11 10° 337° (NNW) 1,266 3.4 -11.2°
Sets 05:48:34 0° 25° (NNE) 1,790 4.7 -10.7°
